FALCON HEAVY R/B, 44345

Orbit data source: Space-Track

FALCON HEAVY R/B, 44345 is space debris originally from a launch on Tue, 25 Jun 2019 UTC launched from the Air Force Eastern Test Range (AFETR). Debris objects in space refer to the collection of defunct objects orbiting the Earth. Examples of debris include non-operational satellites, rocket bodies, and fragments generated from explosions, collisions, or faulty payload assembly.

Loading next visibility...
Identifier
44345, 2019-036G
Orbit
Active
Country
Flag of USUS
Related business
Manufacturer
SpaceX
Mission
Spacecraft
Bus & Motor
F9ST2, Unknown motor
Mass
~4,000 kg wet, ~4,000 kg dry
Launch date (UTC)
2019-06-25 (6 years ago)
Launch vehicle
Unknown
Launch site
Air Force Eastern Test Range (AFETR)
Object type
Payload
Rocket body
Debris
Shape & HBR
Cyl, Unknown HBR
Radar Cross Section
49.816 m², Large (>1 m²)

Expand to show TLE details & history
Last TLE update: 1 day ago

TLE from 1 day ago
0 FALCON HEAVY R/B
1 44345U 19036G   25294.17939998 -.00000057  00000-0  00000-0 0  9999
2 44345  42.4574 357.1221 2162555  10.1366 353.6669  4.69266421108425
Epoch: 2025-10-21T04:18Z
TLE epoch observation values (Epoch: 2025-10-21T04:18:20.158Z)
Latitude
-0.00001°
Longitude
-97.32738°
Altitude
5,462.812 km
Speed
6.394 km/s
True Right ascension
23h 48m 30s
True Declination
0° 00' 00"
Sunlit
Object was in full shadow at epoch
Visualization orbit readout
Latitude
Unknown
Longitude
Unknown
Altitude
Unknown
Speed
Unknown
Apparent Right ascension
Unknown
Apparent Declination
Unknown
Sunlit
N/A
Visualization observer readout
Local Sidereal Time
05:27:58
Azimuth
Unknown
Elevation
Unknown
Doppler factor
Unknown
Orbital elements
Apogee altitude
11,952.431 km
Perigee altitude
5,433.922 km
Semi-major axis
15,071.313 km
Eccentricity
0.21626
Inclination
42.4574°
RAAN
357.1221°
Arg. of periapsis
10.1366°
True anomaly
349.9521°
Mean anomaly
353.6669°
Eccentric anomaly
351.9268°
Mean motion
1.17305 °/min
Orbital period
306.89 mins
BSTAR
0
Loading maneuver chart data...
Computing Atmospheric mass density...
Loading historical data...
Loading historical data...
Loading historical data...
Loading historical data...
Loading historical data...
Loading historical data...
Loading historical data...

Documentation

Showing up to 5 results
|